Location: Berlín
(5.7833°N, 74.6500°W)
Time: 01:24:13
(UTC+00:00)

Daily predictions for brighter satellites

Satellite Brightness Start Highest point End
(mag) Time Altitude Azimuth Time Altitude Azimuth Time Altitude Azimuth
DELTA 2 R/B (1) 3.6 00:00:24 10° SW 00:05:51 59° SE 00:07:01 48° E
Cosmos 2151 Rocket 3.4 00:02:13 10° S 00:06:37 83° E 00:08:04 42° N
Delta 7925 Rocket 4.3 00:01:33 10° SW 00:07:37 62° SSE 00:10:14 40° E
Hubble Space Telescope 2.7 00:06:09 10° W 00:09:14 23° SSW 00:11:10 16° S
SEDSat Delta rocket 4.4 00:03:00 10° WNW 00:09:29 59° SW 00:14:00 19° SE
Cosmos 1943 Rocket 3.5 00:09:04 10° SW 00:14:14 37° WNW 00:19:25 10° N
Cosmos 44 Rocket 4.3 00:12:56 10° SW 00:17:15 41° WNW 00:19:30 24° NNW
Cosmos 909 Rocket 4.4 00:18:40 10° NNW 00:25:18 79° WSW 00:33:27 10° SSE
Geosat 3.8 00:20:47 10° SSE 00:25:47 90° ESE 00:30:47 10° NNW
Ariane H10-3 3.6 00:24:46 10° W 00:26:09 32° WNW 00:26:09 32° WNW
Palapa 6 Rocket 4.1 00:24:42 10° WNW 00:30:35 69° SSW 00:32:11 52° SE
Cosmos 1932 4.4 00:28:12 10° SSW 00:33:54 69° SE 00:33:54 69° SE
SJ 16-02 3.1 00:43:56 10° SSW 00:46:30 30° WSW 00:46:30 30° WSW
Atlas Centaur 2 3.8 00:47:00 10° W 00:51:49 31° SSW 00:53:44 26° S
ATLAS 5 CENTAUR R/B 3.8 00:48:07 10° S 00:49:32 16° S 00:49:32 16° S
USA 234 4.4 00:53:02 28° NNW 00:55:03 34° NW 01:00:49 10° WSW
VEP-3 4.2 00:53:18 10° NW 00:55:46 23° NNW 00:55:46 23° NNW
Ariane H10+ 4.1 01:07:00 10° SW 01:08:30 21° SW 01:08:30 21° SW
ARIANE 5 R/B 4.4 01:53:09 10° WSW 02:28:30 19° ESE 03:01:57 10° E
CZ-3 Stage 3 3.4 08:16:52 79° SW 08:17:37 87° SSE 08:43:51 10° ENE
ARIANE 5 R/B 3.6 08:24:34 28° E 08:24:34 28° E 08:26:09 10° E
Meteosat 1 Rocket2 4.4 08:27:19 54° ESE 08:27:19 54° ESE 08:31:08 10° ESE
Centaur AC-119 4.1 08:31:37 38° SE 08:31:37 38° SE 08:34:16 10° ESE
Cosmos 2237 Rocket 3.9 08:28:00 10° SSE 08:32:55 30° ESE 08:37:48 10° NE
CZ-3 R/B 3.8 08:00:33 10° WSW 08:39:13 55° NW 08:48:57 10° NE
Cosmos 2227 4.5 08:41:26 62° SSE 08:41:26 62° SSE 08:46:05 10° SSE
OAO 2 Rocket 4.5 08:50:44 34° S 08:50:44 34° S 08:54:07 10° SSE
Cosmos 1844 3.7 08:51:30 67° NNE 08:52:07 75° ENE 08:57:38 10° SSE
Cosmos 614 Rocket 4.3 08:53:41 50° NNE 08:54:40 60° ENE 08:59:37 10° SSE
Cosmos 1535 Rocket 4.3 08:57:26 40° N 08:59:50 86° W 09:06:03 10° S
FALCON 9 R/B 3.7 08:56:30 28° NW 09:03:10 50° NNE 09:08:17 10° E
Meteor 2-14 Rocket 4.3 09:05:23 10° SSW 09:11:27 63° W 09:17:27 10° N
ARIANE 42L R/B 4.1 09:12:29 23° SSW 09:13:13 25° S 09:15:46 10° SE
ISS -0.7 09:13:57 10° NE 09:14:14 10° NE 09:14:31 10° ENE
CZ-4C R/B 3.6 09:13:15 36° WNW 09:16:07 46° WSW 09:24:42 10° S
SL-16 R/B 2.4 09:14:02 10° S 09:20:10 70° WSW 09:25:08 16° NNW
Cosmos 1066 4.5 09:17:08 10° S 09:22:35 78° W 09:28:01 10° N
ARIANE 5 R/B 2.2 09:24:53 21° SSE 09:24:53 21° SSE 09:26:00 10° SE
Centaur AC-112 2.9 09:29:22 42° WNW 09:30:15 50° NNW 09:39:40 10° ENE
Cosmos 1733 Rocket 3.0 09:27:17 10° N 09:31:34 86° E 09:35:55 10° S
Cosmos 1340 Rocket 4.3 09:28:21 10° NNE 09:31:45 34° E 09:35:08 10° SSE
Cosmos 1844 Rocket 3.4 09:33:56 30° W 09:34:49 31° WSW 09:39:45 10° SSW
Cosmos 2084 Rocket 4.5 09:33:42 10° N 09:37:40 42° ENE 09:41:36 10° SE
GPS 2-15 Rocket1 3.3 09:37:01 30° NW 09:39:09 62° NNE 09:43:51 10° E
ATLAS CENTAUR R/B 1.9 09:42:50 25° SW 09:42:50 25° SW 09:44:55 10° S
UNK 3.6 09:37:54 10° SSE 09:42:24 89° E 09:46:55 10° NNW
Cosmos 1328 4.1 09:43:51 10° SSW 09:47:08 33° W 09:50:07 12° NNW
Cosmos 1606 3.0 09:46:09 10° NNE 09:48:44 42° E 09:51:19 10° SSE
IRS-1D 3.5 09:48:27 10° N 09:53:14 55° WNW 09:58:04 10° SSW
BLOCK DM-SL R/B 4.4 09:39:24 13° W 09:55:00 62° S 09:59:38 10° ESE
Cosmos 1703 Rocket 4.0 09:52:53 10° SSW 09:56:51 36° W 10:00:50 10° NNW
Cosmos 2100 Rocket 4.0 09:52:25 10° N 09:58:35 87° E 10:04:50 10° S
Skynet4D Del rocket 3.7 10:09:19 10° WSW 10:15:40 85° NNW 10:21:16 10° ENE
Cosmos 921 Rocket 3.0 10:11:39 10° NNW 10:16:02 71° W 10:20:23 10° S
Ariane H10+ 4.1 10:13:39 10° WSW 10:16:16 45° SSE 10:24:22 10° E
Cosmos 2237 Rocket 3.4 10:12:49 10° WSW 10:16:41 19° WNW 10:20:33 10° NNW
USA 229 DEB 3.3 10:12:36 10° SSW 10:18:12 89° ESE 10:23:56 10° NNE
USA 229 3.3 10:12:48 10° SSW 10:18:24 88° ESE 10:24:06 10° NNE
Cosmos 1459 Rocket 4.0 10:13:00 10° NNW 10:19:14 66° W 10:25:24 10° S
Cosmos 2292 Rocket 4.0 10:17:33 10° SW 10:20:08 23° W 10:23:05 10° NNW
Milstar 3 Cent rocket 4.4 10:01:13 10° NW 10:20:43 66° NNE 10:29:17 10° ESE
Cosmos 1269 Rocket 4.5 10:19:29 10° N 10:24:43 67° ENE 10:29:57 10° SSE
IGS 5A 4.5 10:21:06 10° NNE 10:24:58 50° E 10:28:50 10° S
